Home   Weather   Raleigh   Past weeks
Flag for USA

Past Weather in Raleigh, North Carolina, USA — Yesterday and Last 2 Weeks

Now
60 °F

Low clouds.


Feels Like: 60 °F
Forecast: 73 / 60 °F
Wind: 6 mph from Southeast

Location: Raleigh-Durham International Airport

Current Time: Oct 22, 2019 at 2:46:42 am

Latest Report: Oct 22, 2019 at 1:51 am


Visibility: 10 mi

Pressure: 30.05 "Hg

Humidity: 96%

Dew Point: 59 °F

Location of RaleighLocation

Past Weather in Raleigh — Graph

°F

Raleigh Temperature Yesterday

Maximum temperature yesterday: 74 °F (at 1:51 pm)
Minimum temperature yesterday: 51 °F (at 5:51 am)
Average temperature yesterday: 62 °F

High & Low Weather Summary for the Past Weeks

 TemperatureHumidityPressure
High84 °F (Oct 7, 2:51 pm)100% (Oct 7, 7:51 am)30.26 "Hg (Oct 7, 7:51 am)
Low40 °F (Oct 19, 6:51 am)29% (Oct 14, 4:51 pm)29.61 "Hg (Oct 16, 4:51 pm)
Average62 °F76%30.01 "Hg
* Reported Oct 7 1:51 am — Oct 22 1:51 am, Raleigh. Weather by CustomWeather, © 2019

Note: Actual official high and low records may vary slightly from our data, if they occured in-between our weather recording intervals... More about our weather records

Advertising

Raleigh Weather History for the Previous 24 Hours

Scroll right to see more
 ConditionsComfort  
Time TempWeatherWind HumidityBarometerVisibility
1:51 am
Tue, Oct 22
60 °FLow clouds.6 mph96%30.05 "Hg10 mi
12:51 am60 °FLow clouds.8 mph93%30.06 "Hg10 mi
11:51 pm
Mon, Oct 21
60 °FMostly cloudy.7 mph93%30.06 "Hg10 mi
10:51 pm60 °FPassing clouds.6 mph93%30.06 "Hg10 mi
9:51 pm61 °FOvercast.7 mph90%30.06 "Hg10 mi
8:51 pm62 °FOvercast.6 mph90%30.06 "Hg10 mi
7:51 pm64 °FOvercast.7 mph84%30.05 "Hg10 mi
6:51 pm66 °FOvercast.6 mph81%30.03 "Hg10 mi
5:51 pm69 °FMore clouds than sun.6 mph70%30.03 "Hg10 mi
4:51 pm72 °FMostly cloudy.6 mph61%30.04 "Hg10 mi
3:51 pm73 °FBroken clouds.No wind59%30.03 "Hg10 mi
2:51 pm72 °FPartly sunny.6 mph59%30.04 "Hg10 mi
1:51 pm74 °FBroken clouds.5 mph57%30.05 "Hg10 mi
12:51 pm69 °FScattered clouds.5 mph63%30.08 "Hg10 mi
11:51 am67 °FScattered clouds.5 mph68%30.09 "Hg10 mi
10:51 am64 °FScattered clouds.8 mph73%30.08 "Hg10 mi
9:51 am60 °FScattered clouds.8 mph86%30.08 "Hg10 mi
8:51 am56 °FPartly sunny.8 mph93%30.07 "Hg10 mi
7:51 am53 °FPartly sunny.3 mph100%30.06 "Hg10 mi
6:51 am51 °FPassing clouds.No wind100%30.04 "Hg10 mi
5:51 am51 °FClear.No wind100%30.02 "Hg10 mi
4:51 am53 °FPassing clouds.No wind100%30.01 "Hg10 mi
3:51 am54 °FPassing clouds.No wind100%29.99 "Hg10 mi
2:51 am56 °FPassing clouds.No wind97%29.99 "Hg10 mi
Weather by CustomWeather, © 2019

See weather overview